Powrót do katalogu

STARLINK-37289

AktywnyŁącznośćVLEO
NORAD 68545·PAYLOAD·🇺🇸 United States

Wystrzelony Apr 2, 2026 z Cape Canaveral Space Force Station

Loading…

Następne Przeloty (najbliższe 24 godziny)

TLE

ŚwieżeSource: CelesTrak SupGP

Epoka: Sep 14, 2026, 21:02 UTC

1 68545C 26070D   26257.87687500  .00020565  00000+0  60741-3 0  2571
2 68545  53.1589 200.2492 0001421  98.4075 157.1985 15.34390081    12

Śledź STARLINK-37289 w czasie rzeczywistym z AllMySat

Download on the App Store